Location: Brantley
(31.5822°N, 86.2569°W)
Time: 13:17:24
(UTC+00:00)

Courier 1B - Pass Details

Date: 21 February 2026
Orbit: 962 x 1208 km, 28.3° (Epoch: 11 March)

Event Time Altitude Azimuth Distance (km) Brightness Sun altitude
Rises 23:20:39 0° 238° (WSW) 3,727 12.3 2.6°
Reaches altitude 10° 23:23:23 10° 232° (SW) 2,810 11.3 2.0°
Maximum altitude 23:29:52 46° 162° (SSE) 1,410 8.4 0.6°
Drops below altitude 10° 23:36:47 10° 92° (E) 2,989 9.4 -0.8°
Enters shadow 23:39:24 - 86° (E) 3,861 9.9 -1.3°
Sets 23:39:46 0° 86° (E) 3,986 - -1.4°
